GW1868 Weather Reports


Display with metric or nautical units.
time (UTC)temp
F
wind
direction
speed
MPH
gust
MPH
rain 1hr
in
rain 24hr
in
rain mn
in
humidity
%
barometer
mb
20260510102832 65 130 0.0 0.0 0.00 0.00 0.00 94 1014.3
20260510101330 65 130 0.0 0.0 0.00 0.00 0.00 94 1014.4
20260510095826 64 137 0.0 0.0 0.00 0.00 0.00 94 1014.0
20260510094321 65 136 0.0 0.0 0.00 0.00 0.00 94 1014.1
20260510092816 65 134 0.0 0.0 0.00 0.00 0.00 94 1014.2
20260510091312 65 135 0.0 0.0 0.00 0.00 0.00 94 1014.3
20260510085812 65 133 0.0 0.0 0.00 0.00 0.00 94 1014.0
20260510084311 65 139 0.0 0.0 0.00 0.00 0.00 94 1014.1
20260510082806 66 139 0.0 0.0 0.00 0.00 0.00 94 1014.0
20260510081304 66 135 0.0 0.0 0.00 0.00 0.00 94 1014.1
20260510075804 66 137 0.0 1.0 0.00 0.00 0.00 94 1013.6
20260510074301 66 120 0.0 0.0 0.00 0.00 0.00 94 1013.5
20260510072801 66 130 0.0 0.0 0.00 0.00 0.00 94 1013.4
20260510071257 67 120 0.0 0.0 0.00 0.00 0.00 94 1013.5
20260510065752 67 129 0.0 0.0 0.00 0.00 0.00 94 1013.5
20260510064250 67 131 0.0 0.0 0.00 0.00 0.00 94 1013.4
20260510062744 68 126 0.0 0.0 0.00 0.00 0.00 94 1013.6
20260510061239 68 131 0.0 0.0 0.00 0.00 0.00 94 1013.6
20260510055734 68 102 1.0 2.0 0.00 0.00 0.00 94 1013.6
20260510054234 68 80 3.0 5.0 0.00 0.00 0.00 94 1013.7
20260510052731 68 102 1.0 2.0 0.00 0.00 0.00 94 1013.0
20260510051226 69 139 3.0 5.0 0.00 0.00 0.00 94 1012.8
20260510045723 69 109 3.0 7.0 0.00 1.28 1.28 94 1012.7
20260510044221 69 196 5.0 8.0 0.00 1.28 1.28 94 1012.8
20260510042715 69 172 4.0 8.0 0.00 1.28 1.28 94 1013.0
20260510041212 69 151 4.0 7.0 0.00 1.28 1.28 94 1013.2
20260510035707 69 156 3.0 7.0 0.00 1.28 1.28 94 1013.7
20260510034202 69 166 4.0 6.0 0.00 1.28 1.28 94 1014.1
20260510032658 68 135 0.0 2.0 0.00 1.28 1.28 94 1014.2
20260510031158 68 146 0.0 2.0 0.00 1.28 1.28 94 1014.3
20260510025653 68 150 1.0 1.0 0.00 1.28 1.28 94 1014.7
20260510024149 69 148 1.0 1.0 0.00 1.28 1.28 94 1014.7
20260510022649 69 144 0.0 0.0 0.00 1.28 1.28 94 1014.5
20260510021143 69 132 0.0 0.0 0.00 1.28 1.28 94 1014.4
20260510015641 68 134 0.0 0.0 0.00 1.28 1.28 94 1014.3
20260510014136 69 134 0.0 0.0 0.00 1.28 1.28 94 1013.8
20260510012632 69 138 0.0 0.0 0.00 1.28 1.28 94 1013.7
20260510011130 69 137 1.0 2.0 0.00 1.28 1.28 94 1013.5
20260510005631 69 143 2.0 5.0 0.00 1.28 1.28 94 1013.2
20260510004130 69 130 2.0 7.0 0.00 1.28 1.28 94 1012.7
20260510002629 69 114 4.0 6.0 0.00 1.28 1.28 94 1012.9
20260510001128 69 143 2.0 5.0 0.00 1.28 1.28 94 1012.9
20260509235627 69 139 3.0 5.0 0.00 1.28 1.28 94 1012.8
20260509234123 69 146 2.0 3.0 0.00 1.28 1.28 94 1013.0
20260509232619 69 153 1.0 3.0 0.00 1.28 1.28 94 1012.9
20260509231117 69 144 1.0 2.0 0.00 1.28 1.28 94 1012.9
20260509225612 69 122 0.0 1.0 0.00 1.28 1.28 94 1012.8
20260509224112 69 275 3.0 3.0 0.00 1.28 1.28 94 1013.0
20260509222608 69 154 4.0 5.0 0.05 1.28 1.28 94 1012.8
20260509221108 69 145 1.0 1.0 0.00 1.27 1.27 94 1012.9
20260509215608 69 130 1.0 2.0 0.00 1.27 1.27 94 1012.5
20260509214105 69 130 1.0 2.0 0.00 1.27 1.27 94 1012.5
20260509212601 69 138 0.0 0.0 0.12 1.26 1.26 94 1013.0
20260509211056 68 134 0.0 0.0 0.07 1.24 1.24 94 1012.8
20260509205555 68 121 1.0 1.0 0.00 1.23 1.23 94 1012.6
20260509204050 68 107 0.0 1.0 0.00 1.23 1.23 94 1012.2
20260509202544 68 108 4.0 7.0 0.00 1.23 1.23 94 1011.9
20260509201039 68 90 2.0 5.0 0.00 1.23 1.23 94 1012.4
20260509195537 68 129 1.0 5.0 0.00 1.23 1.23 94 1012.9
20260509194036 68 114 3.0 3.0 0.00 1.23 1.23 94 1013.1
20260509192535 68 102 0.0 1.0 0.00 1.23 1.23 94 1013.9
20260509191032 67 99 2.0 2.0 0.00 1.22 1.22 94 1013.8
20260509185531 67 139 3.0 6.0 0.19 1.22 1.22 94 1013.6
20260509184027 67 131 2.0 2.0 0.12 1.19 1.19 94 1014.1
20260509182527 67 152 2.0 2.0 0.07 1.16 1.16 94 1014.3
20260509181025 67 147 4.0 6.0 0.00 1.14 1.14 94 1013.6
20260509175525 67 165 3.0 6.0 0.07 1.13 1.13 94 1013.8
20260509174025 67 143 4.0 7.0 0.07 1.11 1.11 94 1014.0
20260509172526 67 140 3.0 7.0 0.05 1.10 1.10 94 1014.2
20260509171020 67 72 2.0 7.0 0.05 1.08 1.08 94 1013.5
20260509165516 67 139 3.0 9.0 0.05 1.06 1.06 94 1013.6
20260509164015 68 170 4.0 6.0 0.42 1.04 1.04 94 1014.3
20260509162511 68 107 2.0 5.0 0.00 0.95 0.95 94 1014.9
20260509161010 68 53 2.0 5.0 0.12 0.93 0.93 94 1014.1
20260509155509 68 75 4.0 5.0 0.05 0.91 0.91 94 1014.2
20260509154006 68 71 2.0 3.0 0.12 0.89 0.89 94 1014.3
20260509152501 67 54 3.0 6.0 0.05 0.86 0.86 94 1013.9
20260509150958 67 87 1.0 3.0 0.31 0.83 0.83 94 1014.1
20260509145454 66 130 0.0 1.0 0.31 0.77 0.77 94 1014.0
20260509143950 66 52 1.0 2.0 0.07 0.68 0.68 94 1014.2
20260509142445 66 133 1.0 2.0 0.24 0.65 0.65 94 1014.0
20260509140941 66 133 0.0 1.0 0.42 0.52 0.52 94 1014.2
20260509135438 66 109 1.0 1.0 0.24 0.43 0.43 94 1013.5
20260509133936 65 64 2.0 2.0 0.19 0.35 0.35 94 1014.2
20260509132434 65 48 6.0 8.0 1.09 0.29 0.29 94 1014.2
20260509130931 66 19 11.0 14.0 0.47 0.08 0.08 93 1014.5
20260509125426 73 355 7.0 11.0 0.00 0.00 0.00 92 1014.3
20260509123923 74 140 0.0 0.0 0.00 0.00 0.00 94 1012.4
20260509122419 73 135 1.0 2.0 0.00 0.00 0.00 94 1011.7
20260509120916 73 150 2.0 3.0 0.00 0.00 0.00 94 1011.6
20260509115414 72 148 1.0 2.0 0.00 0.00 0.00 94 1011.6
20260509113910 71 156 3.0 3.0 0.00 0.00 0.00 94 1011.5
20260509112406 71 140 1.0 1.0 0.00 0.00 0.00 94 1011.6
20260509110904 71 147 0.0 0.0 0.00 0.00 0.00 93 1011.6
20260509105402 72 138 0.0 0.0 0.00 0.00 0.00 93 1011.2
20260509103859 72 129 1.0 2.0 0.00 0.00 0.00 92 1011.0